Location: Fulton (historical)
(45.4707°N, 122.6718°W)
Time: 00:14:24
(UTC+00:00)

Daily predictions for brighter satellites

Satellite Brightness Start Highest point End
(mag) Time Altitude Azimuth Time Altitude Azimuth Time Altitude Azimuth
ATLAS 5 CENTAUR R/B 2.1 02:31:19 10° NW 02:33:59 64° NE 02:41:19 10° SE
CENTAUR R/B 4.2 02:32:27 10° NNW 02:39:00 29° NNE 02:46:12 10° E
Cosmos 1943 3.3 02:33:40 10° NNW 02:39:15 58° ENE 02:44:49 10° SE
Tsikada Rocket 4.2 02:41:16 10° N 02:47:27 80° W 02:53:36 10° S
Cosmos 1975 2.8 02:43:52 10° S 02:47:54 64° E 02:51:57 10° NNE
CZ-4 R/B 1.7 02:46:07 10° S 02:50:20 78° WSW 02:54:34 10° NNW
Cosmos 1544 3.3 02:47:45 10° SSW 02:51:25 75° W 02:55:05 10° N
CSL-04 Debris 4.2 02:46:39 10° SSE 02:51:59 68° ENE 02:57:21 10° N
Cosmos 1898 Rocket 3.4 02:46:50 10° SSW 02:52:00 78° ESE 02:57:12 10° NNE
Meteor 1-21 4.2 02:47:34 10° N 02:53:09 63° ENE 02:58:41 10° SSE
Cosmos 1782 Rocket 3.6 02:49:35 10° S 02:53:54 60° E 02:58:18 10° NNE
CZ-2C R/B 3.1 02:52:14 10° SSW 02:53:57 13° S 02:55:37 10° SE
Cosmos 1908 Rocket 3.9 02:51:44 10° SSW 02:56:04 72° W 03:00:28 10° N
Cosmos 1867 4.0 02:51:20 10° NNW 02:56:39 48° NE 03:01:54 10° ESE
Cosmos 1025 Rocket 4.2 02:53:14 10° NNE 02:56:47 24° ENE 03:00:20 10° SE
Cosmos 1603 3.8 02:53:24 10° NNW 02:59:07 88° WSW 03:04:45 10° SSE
CSL-04 Rocket 3.7 02:55:51 10° SSE 03:01:15 77° ENE 03:06:45 10° NNW
Cosmos 1842 3.3 02:59:52 10° N 03:03:45 86° W 03:07:37 10° S
Cosmos 858 Rocket 4.4 02:59:39 10° SSW 03:04:51 73° ESE 03:10:04 10° NNE
Cosmos 372 Rocket 4.4 03:04:43 10° S 03:09:34 39° ESE 03:14:25 10° NE
Cosmos 807 4.2 03:07:45 10° S 03:10:48 84° E 03:14:26 10° N
Abrixas rocket 2.4 03:14:07 10° W 03:16:55 51° N 03:18:56 16° ENE
NOSS 2-2 (C) 3.2 03:13:32 10° SSW 03:16:57 51° ESE 03:20:38 10° NE
NOSS 3-2 (A) 4.4 03:09:56 10° NNW 03:17:02 49° NE 03:23:36 16° ESE
Cosmos 1707 2.9 03:13:51 10° N 03:17:36 48° ENE 03:21:19 10° SSE
Cosmos 1975 Rocket 3.0 03:13:46 10° N 03:18:07 86° W 03:22:26 10° S
Cosmos 2084 Rocket 4.0 03:13:52 10° NW 03:18:16 61° SW 03:22:43 10° SSE
Cosmos 1937 Rocket 3.6 03:15:52 10° SSW 03:21:07 82° WNW 03:26:23 10° NNE
MOS 1 Rocket 3.0 03:16:40 10° NNE 03:21:10 70° ESE 03:25:26 10° S
SJ-6B 3.5 03:19:56 18° ESE 03:22:02 31° ENE 03:25:23 10° N
ISS -3.4 03:21:15 10° SW 03:24:27 44° SE 03:26:13 23° E
Resurs 01 Rocket 3.3 03:27:09 16° ENE 03:27:58 17° ENE 03:30:49 10° NNE
Cosmos 1437 4.2 03:28:07 10° NNW 03:30:55 36° W 03:33:42 10° SSW
Sich 1 Rocket 3.6 03:29:11 10° S 03:33:40 87° W 03:38:14 10° N
USA 234 3.6 03:32:56 10° ENE 03:39:01 40° SE 03:45:06 10° SSW
Cosmos 1072 Rocket 4.4 03:33:07 10° S 03:39:20 81° E 03:45:41 10° N
Nadezhda 4 Rocket 4.0 03:36:28 10° N 03:42:30 57° ENE 03:47:45 14° SSE
H-2A R/B 2.7 03:38:20 10° S 03:43:10 55° W 03:48:09 10° NNW
In-Cosmos 22 4.0 03:39:14 10° N 03:44:32 74° ENE 03:49:36 11° SSE
ARIANE 5 R/B 4.5 03:45:29 15° NE 03:45:29 15° NE 03:47:38 10° NNE
Cosmos 2034 Rocket 4.0 03:39:25 10° S 03:45:39 60° E 03:51:54 10° NNE
SJ 16-02 4.4 03:43:52 10° W 03:46:52 18° NW 03:49:54 10° NNW
SL-08 RB Rocket 3.7 03:43:45 10° SSE 03:48:22 87° W 03:52:57 10° NNW
ARGOS 3.5 03:43:25 10° S 03:48:44 67° WSW 03:54:06 10° NNW
Lacrosse 5 rocket 3.7 03:45:34 10° WNW 03:48:56 21° NNW 03:52:25 10° NE
NOSS 3-2 (C) 4.4 03:44:15 10° NNW 03:51:26 51° NE 03:55:59 26° ESE
CZ-2C R/B 2.6 03:47:07 10° NNE 03:52:39 67° ESE 03:58:13 10° S
Cosmos 1048 Rocket 4.1 03:47:45 10° NNW 03:53:01 59° ENE 03:55:33 30° SE
Okean 2 Rocket 3.1 03:48:44 10° S 03:53:14 85° W 03:57:45 10° N
BREEZE-M DEB (TANK) 3.7 03:50:03 10° SW 03:53:23 64° SE 04:04:33 10° ENE
Okean 1 Rocket 3.7 03:57:02 35° E 03:57:02 35° E 04:00:52 10° NNE
CREW DRAGON DEMO-1 DEB 4.4 03:56:09 10° NW 03:58:47 26° N 03:59:14 24° NNE
USA 186 2.3 03:57:53 26° S 03:59:24 57° W 04:02:35 10° NNW
MOS 1 4.2 03:56:46 15° SSE 04:01:33 87° ENE 04:07:17 10° NNW
Cosmos 1844 3.9 03:57:39 10° S 04:03:05 47° ESE 04:08:29 10° NE
Cosmos 1300 Rocket 3.9 04:00:20 10° SSW 04:04:41 66° W 04:09:07 10° N
Resurs 1-3 3.7 04:04:57 46° ESE 04:05:45 54° ENE 04:10:04 10° N
Cosmos 2263 Rocket 3.9 04:02:07 10° WSW 04:07:07 33° NW 04:12:10 10° N
FREGAT/IRIS 3.6 04:11:12 40° NW 04:11:12 40° NW 04:13:11 10° NNW
Cosmos 1626 4.0 04:09:01 10° NNE 04:10:35 20° NNE 04:10:35 20° NNE
Cosmos 1844 Rocket 2.5 04:08:19 10° SSW 04:13:49 71° ESE 04:19:24 10° NNE
Ariane Rocket 3.4 04:11:02 14° S 04:15:21 61° WSW 04:20:24 10° NNW
CZ-2C R/B 4.2 04:13:23 10° NNE 04:16:40 40° ENE 04:16:40 40° ENE
ATLAS 2AS CENTAUR R/B 3.6 04:11:56 10° S 04:20:13 34° E 04:25:54 10° NE
Cosmos 1634 Rocket 4.1 04:17:30 41° SE 04:18:57 48° E 04:24:52 10° NNE
OBJECT-B 1.5 04:20:34 50° NNW 04:20:34 50° NNW 04:23:04 10° NNW
Cosmos 1536 Rocket 4.0 04:17:47 10° NNW 04:22:11 62° W 04:24:21 28° SSW
Cosmos 2285 Rocket 3.9 04:18:14 10° S 04:24:26 65° ESE 04:30:44 10° NNE
Cosmos 494 Rocket 3.9 04:19:35 10° NNW 04:24:52 71° ENE 04:25:46 58° SE
Cosmos 2298 Rocket 4.3 04:21:27 10° SSW 04:26:45 68° WNW 04:32:05 10° NNE
SPOT 3 Rocket 3.4 04:26:58 53° SSE 04:28:12 82° ENE 04:33:22 10° NNW
Meteor 1-15 Rocket 4.2 04:24:53 10° SSW 04:30:29 85° W 04:36:14 10° N
Cosmos 1805 4.2 04:32:03 40° NNE 04:32:03 40° NNE 04:34:38 10° N
CENTAUR R/B 3.2 04:23:02 10° NW 04:31:05 73° NE 04:34:28 42° ESE
Terra 4.1 04:33:40 12° NE 04:33:40 12° NE 04:34:22 10° NNE
Cosmos 1627 Rocket 4.4 04:29:05 10° N 04:35:30 72° E 04:37:09 51° SSE
Cosmos 1833 Rocket 3.8 04:31:24 10° N 04:36:13 28° NE 04:36:13 28° NE
ATLAS 3B R/B 3.6 04:31:06 10° NNW 04:37:17 35° NE 04:39:00 31° ENE
Cosmos 1674 3.3 04:35:03 10° NNW 04:38:41 55° W 04:38:41 55° W
USA 238 DEB 3.9 04:32:58 10° NW 04:40:12 77° SW 04:42:53 43° SSE
USA 238 3.9 04:33:04 10° NW 04:40:18 78° SW 04:42:58 44° SSE
Cosmos 1092 Rocket 3.9 04:35:09 10° N 04:41:20 84° W 04:43:35 42° S
Cosmos 2195 Rocket 4.4 04:37:59 10° N 04:44:17 89° WSW 04:46:03 50° S
Cosmos 2026 Rocket 3.9 04:42:01 10° N 04:48:25 84° E 04:49:46 59° SSE
Cosmos 1428 Rocket 4.4 04:54:14 10° N 05:00:32 84° W 05:01:27 67° S
ISS -1.0 04:58:06 10° W 04:59:12 18° W 04:59:12 18° W
Exosat Rocket 4.0 04:56:04 10° SW 05:01:38 61° WNW 05:06:35 10° NNE
Meteor 2-5 Rocket 3.9 04:56:38 10° NNW 05:02:13 66° W 05:03:02 59° SW
Cosmos 2279 Rocket 4.1 05:03:37 59° NE 05:03:37 59° NE 05:08:56 10° NNE
Resurs 01 Rocket 2.4 05:04:43 51° WNW 05:04:43 51° WNW 05:08:26 10° NNW
Cosmos 2142 Rocket 4.4 05:04:49 78° ENE 05:04:49 78° ENE 05:10:56 10° N
Lacrosse 4 Rocket 3.9 05:02:46 10° N 05:03:40 13° NNE 05:03:40 13° NNE
Cosmos 1125 Rocket 4.3 05:01:21 10° SW 05:06:31 51° WNW 05:11:42 10° NNE
Meteor 1-22 Rocket 4.4 05:14:17 73° WSW 05:14:33 74° WNW 05:20:36 10° N
ERS-1 Rocket 4.4 05:17:25 30° NNE 05:17:25 30° NNE 05:20:11 10° N
Cosmos 2082 Rocket 3.5 05:11:57 10° N 05:15:44 30° NNE 05:15:44 30° NNE
ARIANE 5 R/B 4.2 05:23:03 32° NNW 05:23:03 32° NNW 05:25:30 10° NNW
USA 234 3.4 05:17:05 17° NE 05:22:18 70° NNW 05:28:48 10° WSW
COSMOS 2406 3.7 05:20:11 10° NNW 05:24:37 56° N 05:24:37 56° N
Cosmos 2098 Rocket 4.3 05:19:55 10° N 05:26:02 60° NNE 05:26:02 60° NNE
Meteor 1-24 Rocket 4.3 05:22:14 10° NNW 05:27:22 52° W 05:27:22 52° W
Lacrosse 5 rocket 3.8 05:26:09 10° NW 05:28:55 19° N 05:28:55 19° N
Cosmos 2278 Rocket 4.5 05:51:38 14° NNE 05:51:38 14° NNE 05:52:25 10° NNE
Terra 4.2 06:12:34 20° NNW 06:12:34 20° NNW 06:14:01 10° NNW
ATLAS 2AS CENTAUR R/B 3.3 06:01:39 10° SW 06:09:34 66° NW 06:17:25 10° NE
Cosmos 1833 Rocket 4.3 06:14:59 10° NW 06:17:54 30° NW 06:17:54 30° NW
CENTAUR R/B 4.2 06:14:18 10° NW 06:21:33 34° WSW 06:21:39 34° WSW
ATLAS 3B R/B 3.6 06:21:38 10° NW 06:26:15 45° WNW 06:26:15 45° WNW
Cosmos 2082 Rocket 4.5 06:55:55 10° NW 06:57:34 19° NW 06:57:34 19° NW
USA 234 4.5 06:58:52 10° NE 07:04:43 37° NNW 07:10:35 10° WNW
SL-16 R/B 4.2 08:57:50 28° NNE 08:57:50 28° NNE 09:01:12 10° N
Cosmos 2297 Rocket 4.5 08:54:55 10° N 08:57:28 20° NNE 08:57:28 20° NNE
Cosmos 2369 Rocket 4.5 09:09:59 19° N 09:09:59 19° N 09:11:52 10° N
USA 267 4.3 09:47:22 10° ENE 09:51:38 36° E 09:51:38 36° E
Cosmos 2227 Rocket 4.1 09:51:32 10° NNW 09:53:52 24° N 09:53:52 24° N
ADEOS II 3.7 10:00:00 10° NNE 10:03:06 30° NE 10:03:06 30° NE
ARIANE 5 R/B 4.1 10:19:31 10° NE 10:23:29 29° E 10:23:29 29° E
USA 234 3.8 10:22:40 10° ESE 10:28:59 55° NNE 10:34:12 16° NW
CZ-2D R/B 3.6 10:25:53 10° N 10:28:37 30° N 10:28:37 30° N
ATLAS 5 CENTAUR R/B 3.7 10:35:34 23° N 10:35:34 23° N 10:37:46 10° NNE
SL-16 R/B 4.2 10:42:56 20° NW 10:42:56 20° NW 10:44:56 10° NNW
Resurs 1-4 Rocket 3.6 10:38:39 10° N 10:41:19 27° NNW 10:41:19 27° NNW
Cosmos 2297 Rocket 4.4 10:38:23 10° NNW 10:39:12 14° NNW 10:39:12 14° NNW
Cosmos 2082 4.0 10:42:57 10° NNW 10:48:07 64° NNE 10:48:07 64° NNE
Cosmos 1697 Rocket 2.7 11:01:19 75° E 11:01:19 75° E 11:06:44 10° NNE
IRS-P3 4.2 10:57:02 10° NNE 11:01:49 72° NNE 11:01:49 72° NNE
Meteor 1-25 Rocket 4.3 10:57:15 10° N 11:03:05 75° ENE 11:03:59 62° SE
Cosmos 1980 Rocket 3.0 11:04:19 39° SE 11:05:28 45° ESE 11:10:50 10° NE
Cosmos 1782 4.1 11:08:21 38° ENE 11:08:21 38° ENE 11:11:33 10° NNE
Cosmos 2263 Rocket 3.9 11:08:43 10° N 11:13:46 32° NE 11:18:49 10° ESE
CZ-2C R/B 4.2 11:12:03 10° NNE 11:15:29 32° E 11:15:29 32° E
Cosmos 1515 Rocket 3.9 11:20:58 65° E 11:20:58 65° E 11:25:19 10° NNE
Spot 4 Rocket 4.2 11:15:57 10° NNE 11:21:05 66° ESE 11:22:08 52° SSE
Cosmos 1238 Rocket 4.3 11:19:58 10° N 11:26:37 68° E 11:32:44 10° SSE
Lacrosse 5 1.7 11:27:59 80° WNW 11:28:06 81° NW 11:33:12 10° NE
Cosmos 1777 Rocket 3.8 11:26:28 10° NNW 11:31:41 73° WSW 11:31:41 73° WSW
CZ-4C R/B 4.2 11:30:59 33° ESE 11:32:04 44° ENE 11:35:30 10° N
Celestis-02/Orion 38 4.4 11:27:36 10° SSE 11:32:53 80° WSW 11:38:05 10° NNW
Cosmos 1328 Rocket 4.2 11:34:13 43° NNW 11:34:13 43° NNW 11:37:32 10° N
Cosmos 921 Rocket 4.5 11:32:00 23° SE 11:33:47 32° E 11:37:31 10° NE
USA 267 3.4 11:30:19 10° NE 11:36:47 64° NNW 11:38:59 42° W
Cosmos 44 3.5 11:37:03 48° SSE 11:37:45 54° ESE 11:42:15 10° NE
Cosmos 1821 Rocket 4.0 11:32:09 10° NNW 11:38:18 55° W 11:39:20 50° SW
Cosmos 1933 Rocket 3.4 11:34:50 10° N 11:39:13 89° W 11:39:29 79° S
Cosmos 1656 4.5 11:39:18 33° NW 11:39:22 33° NW 11:44:20 10° N
Cosmos 1151 Rocket 4.1 11:41:50 32° NW 11:41:50 32° NW 11:44:40 10° N
Cosmos 2228 Rocket 3.7 11:38:52 29° SSE 11:40:51 53° E 11:45:10 10° NNE
X-37B 2.0 11:42:47 36° E 11:42:47 36° E 11:44:49 10° E
ADEOS II 3.1 11:40:00 10° N 11:44:02 29° NW 11:44:02 29° NW
Meteor 1-20 Rocket 4.4 11:44:01 10° NNW 11:48:51 44° W 11:48:51 44° W
ATLAS 2AS CENTAUR R/B 4.4 11:42:42 10° NNW 11:49:29 33° NNE 11:55:49 10° E
Cosmos 1934 Rocket 3.8 11:46:40 10° NNW 11:52:42 72° W 11:58:44 10° S
Cosmos 389 Rocket 2.7 11:55:35 57° NNW 11:55:35 57° NNW 11:58:36 10° N
